Time,TemperatureF,DewpointF,PressureIn,WindDirection,WindDirectionDegrees,WindSpeedMPH,WindSpeedGustMPH,Humidity,HourlyPrecipIn,Conditions,Clouds,dailyrainin,SoftwareType,DateUTC
2013-10-18 00:06:00,72.1,68.0,29.84,West,281,0.0,-999.0,88,-99.99,,,0.00,weatherlink.com 1.10,2013-10-18 04:06:00,
2013-10-18 00:21:00,72.3,69.0,29.84,West,261,0.0,-999.0,88,-99.99,,,0.00,weatherlink.com 1.10,2013-10-18 04:21:00,
2013-10-18 00:36:00,72.3,69.0,29.83,WNW,291,0.0,-999.0,89,-99.99,,,0.00,weatherlink.com 1.10,2013-10-18 04:36:00,
2013-10-18 00:51:00,72.3,69.0,29.83,WNW,302,0.0,-999.0,89,-99.99,,,0.00,weatherlink.com 1.10,2013-10-18 04:51:00,
2013-10-18 01:06:00,72.3,69.0,29.83,West,281,0.0,-999.0,90,-99.99,,,0.00,weatherlink.com 1.10,2013-10-18 05:06:00,
2013-10-18 01:21:00,72.3,70.0,29.83,WSW,253,0.0,-999.0,91,-99.99,,,0.00,weatherlink.com 1.10,2013-10-18 05:21:00,
2013-10-18 01:36:00,72.3,70.0,29.83,WNW,289,0.0,-999.0,91,-99.99,,,0.00,weatherlink.com 1.10,2013-10-18 05:36:00,
2013-10-18 01:51:00,72.1,70.0,29.83,WNW,291,0.0,-999.0,92,-99.99,,,0.00,weatherlink.com 1.10,2013-10-18 05:51:00,
2013-10-18 02:06:00,72.1,70.0,29.83,West,281,0.0,-999.0,92,-99.99,,,0.00,weatherlink.com 1.10,2013-10-18 06:06:00,
2013-10-18 02:21:00,72.1,70.0,29.83,WNW,289,0.0,-999.0,92,-99.99,,,0.00,weatherlink.com 1.10,2013-10-18 06:21:00,
2013-10-18 02:36:00,72.1,70.0,29.83,WNW,284,0.0,-999.0,92,-99.99,,,0.00,weatherlink.com 1.10,2013-10-18 06:36:00,
2013-10-18 02:51:00,72.1,70.0,29.83,WSW,253,1.0,-999.0,92,-99.99,,,0.00,weatherlink.com 1.10,2013-10-18 06:51:00,
2013-10-18 03:06:00,72.0,70.0,29.83,WNW,299,0.0,-999.0,92,-99.99,,,0.00,weatherlink.com 1.10,2013-10-18 07:06:00,
2013-10-18 03:21:00,71.8,70.0,29.83,NW,305,0.0,-999.0,93,-99.99,,,0.00,weatherlink.com 1.10,2013-10-18 07:21:00,
2013-10-18 03:36:00,71.5,69.0,29.83,West,281,0.0,-999.0,93,-99.99,,,0.00,weatherlink.com 1.10,2013-10-18 07:36:00,
2013-10-18 03:51:00,70.9,69.0,29.83,NW,309,0.0,-999.0,93,-99.99,,,0.00,weatherlink.com 1.10,2013-10-18 07:51:00,
2013-10-18 04:06:00,69.9,67.0,29.83,WNW,302,0.0,-999.0,91,-99.99,,,0.00,weatherlink.com 1.10,2013-10-18 08:06:00,
2013-10-18 04:21:00,69.9,66.0,29.83,WNW,299,0.0,-999.0,88,-99.99,,,0.00,weatherlink.com 1.10,2013-10-18 08:21:00,
2013-10-18 04:36:00,70.1,67.0,29.84,NW,315,0.0,-999.0,88,-99.99,,,0.00,weatherlink.com 1.10,2013-10-18 08:36:00,
2013-10-18 04:51:00,70.1,67.0,29.84,NW,304,0.0,-999.0,88,-99.99,,,0.00,weatherlink.com 1.10,2013-10-18 08:51:00,
2013-10-18 05:06:00,69.9,66.0,29.84,NW,312,0.0,-999.0,88,-99.99,,,0.00,weatherlink.com 1.10,2013-10-18 09:06:00,
2013-10-18 05:21:00,69.6,66.0,29.84,WNW,296,0.0,-999.0,88,-99.99,,,0.00,weatherlink.com 1.10,2013-10-18 09:21:00,
2013-10-18 05:36:00,69.4,66.0,29.85,NW,305,0.0,-999.0,88,-99.99,,,0.00,weatherlink.com 1.10,2013-10-18 09:36:00,
2013-10-18 05:51:00,69.3,66.0,29.85,NW,305,0.0,-999.0,88,-99.99,,,0.00,weatherlink.com 1.10,2013-10-18 09:51:00,
2013-10-18 06:06:00,69.1,66.0,29.85,WNW,302,0.0,-999.0,89,-99.99,,,0.00,weatherlink.com 1.10,2013-10-18 10:06:00,
2013-10-18 06:21:00,68.9,66.0,29.86,NW,312,0.0,-999.0,89,-99.99,,,0.00,weatherlink.com 1.10,2013-10-18 10:21:00,
2013-10-18 06:36:00,68.9,66.0,29.86,NW,311,0.0,-999.0,90,-99.99,,,0.00,weatherlink.com 1.10,2013-10-18 10:36:00,
2013-10-18 06:51:00,68.8,66.0,29.86,WNW,301,0.0,-999.0,90,-99.99,,,0.00,weatherlink.com 1.10,2013-10-18 10:51:00,
2013-10-18 07:06:00,68.6,66.0,29.87,WNW,302,0.0,-999.0,91,-99.99,,,0.00,weatherlink.com 1.10,2013-10-18 11:06:00,
2013-10-18 07:21:00,68.6,66.0,29.87,WNW,302,0.0,-999.0,91,-99.99,,,0.00,weatherlink.com 1.10,2013-10-18 11:21:00,
2013-10-18 07:36:00,68.6,66.0,29.88,WNW,302,0.0,-999.0,91,-99.99,,,0.00,weatherlink.com 1.10,2013-10-18 11:36:00,
2013-10-18 07:51:00,68.6,66.0,29.89,WNW,302,0.0,-999.0,91,-99.99,,,0.00,weatherlink.com 1.10,2013-10-18 11:51:00,
2013-10-18 08:06:00,68.6,66.0,29.90,NW,313,0.0,-999.0,91,-99.99,,,0.00,weatherlink.com 1.10,2013-10-18 12:06:00,
2013-10-18 08:21:00,68.6,66.0,29.90,NNW,333,0.0,-999.0,91,-99.99,,,0.00,weatherlink.com 1.10,2013-10-18 12:21:00,
2013-10-18 08:36:00,68.6,66.0,29.91,NNW,333,0.0,-999.0,91,-99.99,,,0.00,weatherlink.com 1.10,2013-10-18 12:36:00,
2013-10-18 08:51:00,68.8,66.0,29.91,NNW,333,0.0,-999.0,92,-99.99,,,0.00,weatherlink.com 1.10,2013-10-18 12:51:00,
2013-10-18 09:06:00,69.1,67.0,29.92,NNW,342,0.0,-999.0,92,-99.99,,,0.00,weatherlink.com 1.10,2013-10-18 13:06:00,
2013-10-18 09:21:00,69.8,-99.9,29.92,North,0,0.0,-999.0,-999,-99.99,,,0.00,weatherlink.com 1.10,2013-10-18 13:21:00,
2013-10-18 09:36:00,69.9,67.0,29.93,North,359,0.0,-999.0,90,-99.99,,,0.00,weatherlink.com 1.10,2013-10-18 13:36:00,
2013-10-18 09:51:00,70.4,67.0,29.94,North,4,0.0,-999.0,89,-99.99,,,0.00,weatherlink.com 1.10,2013-10-18 13:51:00,
2013-10-18 10:06:00,71.1,67.0,29.94,NNE,17,0.0,-999.0,87,-99.99,,,0.00,weatherlink.com 1.10,2013-10-18 14:06:00,
2013-10-18 10:21:00,71.1,66.0,29.94,NE,40,0.0,-999.0,85,-99.99,,,0.00,weatherlink.com 1.10,2013-10-18 14:21:00,
2013-10-18 10:36:00,71.8,66.0,29.93,NE,45,0.0,-999.0,83,-99.99,,,0.00,weatherlink.com 1.10,2013-10-18 14:36:00,
2013-10-18 10:51:00,71.8,66.0,29.94,NNE,25,0.0,-999.0,81,-99.99,,,0.00,weatherlink.com 1.10,2013-10-18 14:51:00,
2013-10-18 11:06:00,72.5,66.0,29.94,NNE,20,0.0,-999.0,80,-99.99,,,0.00,weatherlink.com 1.10,2013-10-18 15:06:00,
2013-10-18 11:21:00,72.8,66.0,29.94,North,357,0.0,-999.0,78,-99.99,,,0.00,weatherlink.com 1.10,2013-10-18 15:21:00,
2013-10-18 11:36:00,73.0,66.0,29.94,NNE,24,0.0,-999.0,79,-99.99,,,0.00,weatherlink.com 1.10,2013-10-18 15:36:00,
2013-10-18 11:51:00,73.3,66.0,29.94,East,83,2.0,-999.0,78,-99.99,,,0.00,weatherlink.com 1.10,2013-10-18 15:51:00,
2013-10-18 12:06:00,73.5,66.0,29.94,NNE,20,0.0,-999.0,78,-99.99,,,0.00,weatherlink.com 1.10,2013-10-18 16:06:00,
2013-10-18 12:21:00,74.2,66.0,29.94,North,3,0.0,-999.0,75,-99.99,,,0.00,weatherlink.com 1.10,2013-10-18 16:21:00,
2013-10-18 12:36:00,74.4,66.0,29.93,East,83,0.0,-999.0,74,-99.99,,,0.00,weatherlink.com 1.10,2013-10-18 16:36:00,
2013-10-18 12:51:00,75.1,66.0,29.92,NNE,30,0.0,-999.0,72,-99.99,,,0.00,weatherlink.com 1.10,2013-10-18 16:51:00,
2013-10-18 13:06:00,75.6,66.0,29.92,NNE,27,0.0,-999.0,72,-99.99,,,0.00,weatherlink.com 1.10,2013-10-18 17:06:00,
2013-10-18 13:21:00,76.1,66.0,29.91,North,0,0.0,-999.0,71,-99.99,,,0.00,weatherlink.com 1.10,2013-10-18 17:21:00,
2013-10-18 13:36:00,75.4,67.0,29.91,ENE,76,0.0,-999.0,74,-99.99,,,0.00,weatherlink.com 1.10,2013-10-18 17:36:00,
2013-10-18 13:51:00,75.8,66.0,29.90,East,83,0.0,-999.0,72,-99.99,,,0.00,weatherlink.com 1.10,2013-10-18 17:51:00,
2013-10-18 14:06:00,75.8,66.0,29.90,NE,54,0.0,-999.0,72,-99.99,,,0.00,weatherlink.com 1.10,2013-10-18 18:06:00,
2013-10-18 14:21:00,75.6,65.0,29.89,NNE,18,0.0,-999.0,69,-99.99,,,0.00,weatherlink.com 1.10,2013-10-18 18:21:00,
2013-10-18 14:36:00,75.6,64.0,29.89,NNE,14,0.0,-999.0,67,-99.99,,,0.00,weatherlink.com 1.10,2013-10-18 18:36:00,
2013-10-18 14:51:00,76.3,63.0,29.89,NNE,27,0.0,-999.0,64,-99.99,,,0.00,weatherlink.com 1.10,2013-10-18 18:51:00,
2013-10-18 15:06:00,75.8,64.0,29.89,NE,55,0.0,-999.0,67,-99.99,,,0.00,weatherlink.com 1.10,2013-10-18 19:06:00,
2013-10-18 15:21:00,75.8,64.0,29.89,ENE,65,0.0,-999.0,67,-99.99,,,0.00,weatherlink.com 1.10,2013-10-18 19:21:00,
2013-10-18 15:36:00,75.4,65.0,29.89,NE,54,0.0,-999.0,69,-99.99,,,0.00,weatherlink.com 1.10,2013-10-18 19:36:00,
2013-10-18 15:51:00,74.7,64.0,29.89,NE,51,0.0,-999.0,70,-99.99,,,0.00,weatherlink.com 1.10,2013-10-18 19:51:00,
2013-10-18 16:06:00,76.0,66.0,29.89,ESE,117,0.0,-999.0,70,-99.99,,,0.00,weatherlink.com 1.10,2013-10-18 20:06:00,
2013-10-18 16:36:00,73.7,66.0,29.89,ESE,103,1.0,-999.0,76,-99.99,,,0.00,weatherlink.com 1.10,2013-10-18 20:36:00,
2013-10-18 16:51:00,73.7,66.0,29.89,ESE,112,0.0,-999.0,77,-99.99,,,0.00,weatherlink.com 1.10,2013-10-18 20:51:00,
2013-10-18 17:06:00,72.5,66.0,29.89,ESE,102,6.0,-999.0,79,-99.99,,,0.00,weatherlink.com 1.10,2013-10-18 21:06:00,
2013-10-18 17:21:00,72.3,66.0,29.89,ENE,75,0.0,-999.0,80,-99.99,,,0.00,weatherlink.com 1.10,2013-10-18 21:21:00,
2013-10-18 17:36:00,71.8,66.0,29.89,ENE,71,0.0,-999.0,81,-99.99,,,0.00,weatherlink.com 1.10,2013-10-18 21:36:00,
2013-10-18 17:51:00,71.6,66.0,29.90,ENE,66,0.0,-999.0,82,-99.99,,,0.00,weatherlink.com 1.10,2013-10-18 21:51:00,
2013-10-18 18:06:00,71.3,66.0,29.90,East,95,1.0,-999.0,82,-99.99,,,0.00,weatherlink.com 1.10,2013-10-18 22:06:00,
2013-10-18 18:21:00,70.9,66.0,29.90,ENE,69,0.0,-999.0,84,-99.99,,,0.00,weatherlink.com 1.10,2013-10-18 22:21:00,
2013-10-18 18:36:00,70.8,66.0,29.91,ENE,68,0.0,-999.0,85,-99.99,,,0.00,weatherlink.com 1.10,2013-10-18 22:36:00,
2013-10-18 18:51:00,70.6,66.0,29.91,East,100,0.0,-999.0,86,-99.99,,,0.00,weatherlink.com 1.10,2013-10-18 22:51:00,
2013-10-18 19:06:00,70.4,66.0,29.91,ENE,68,0.0,-999.0,87,-99.99,,,0.00,weatherlink.com 1.10,2013-10-18 23:06:00,
2013-10-18 19:21:00,70.3,66.0,29.92,East,83,0.0,-999.0,87,-99.99,,,0.00,weatherlink.com 1.10,2013-10-18 23:21:00,
2013-10-18 19:36:00,70.1,66.0,29.92,NE,42,0.0,-999.0,87,-99.99,,,0.00,weatherlink.com 1.10,2013-10-18 23:36:00,
2013-10-18 19:51:00,69.8,66.0,29.92,NE,45,0.0,-999.0,87,-99.99,,,0.00,weatherlink.com 1.10,2013-10-18 23:51:00,
2013-10-18 20:06:00,69.6,66.0,29.92,NE,35,0.0,-999.0,89,-99.99,,,0.00,weatherlink.com 1.10,2013-10-19 00:06:00,
2013-10-18 20:21:00,69.3,67.0,29.93,NNE,24,0.0,-999.0,91,-99.99,,,0.01,weatherlink.com 1.10,2013-10-19 00:21:00,
2013-10-18 20:36:00,68.8,66.0,29.92,ENE,59,0.0,-999.0,92,-99.99,,,0.01,weatherlink.com 1.10,2013-10-19 00:36:00,
2013-10-18 20:51:00,68.6,67.0,29.92,NNE,32,0.0,-999.0,93,-99.99,,,0.02,weatherlink.com 1.10,2013-10-19 00:51:00,
2013-10-18 21:06:00,68.3,67.0,29.92,NNE,30,0.0,-999.0,94,-99.99,,,0.02,weatherlink.com 1.10,2013-10-19 01:06:00,
2013-10-18 21:21:00,68.1,67.0,29.92,ENE,71,0.0,-999.0,95,-99.99,,,0.02,weatherlink.com 1.10,2013-10-19 01:21:00,
2013-10-18 21:36:00,68.1,67.0,29.92,East,79,0.0,-999.0,95,-99.99,,,0.02,weatherlink.com 1.10,2013-10-19 01:36:00,
2013-10-18 21:51:00,68.3,67.0,29.93,East,83,0.0,-999.0,96,-99.99,,,0.02,weatherlink.com 1.10,2013-10-19 01:51:00,
2013-10-18 22:06:00,68.3,67.0,29.92,NE,55,0.0,-999.0,96,-99.99,,,0.02,weatherlink.com 1.10,2013-10-19 02:06:00,
2013-10-18 22:21:00,68.3,67.0,29.93,NE,37,0.0,-999.0,96,-99.99,,,0.02,weatherlink.com 1.10,2013-10-19 02:21:00,
2013-10-18 22:36:00,68.3,67.0,29.93,ENE,78,0.0,-999.0,96,-99.99,,,0.02,weatherlink.com 1.10,2013-10-19 02:36:00,
2013-10-18 22:51:00,68.3,67.0,29.92,NE,49,0.0,-999.0,96,-99.99,,,0.02,weatherlink.com 1.10,2013-10-19 02:51:00,
2013-10-18 23:06:00,68.1,67.0,29.92,NE,56,0.0,-999.0,96,-99.99,,,0.02,weatherlink.com 1.10,2013-10-19 03:06:00,
2013-10-18 23:21:00,68.3,67.0,29.92,NE,49,0.0,-999.0,96,-99.99,,,0.03,weatherlink.com 1.10,2013-10-19 03:21:00,
2013-10-18 23:36:00,68.1,67.0,29.92,NE,37,0.0,-999.0,96,-99.99,,,0.03,weatherlink.com 1.10,2013-10-19 03:36:00,
2013-10-18 23:51:00,68.1,67.0,29.91,NE,37,0.0,-999.0,96,-99.99,,,0.04,weatherlink.com 1.10,2013-10-19 03:51:00,